{"data":{"norad_id":1361,"epoch":"2026-09-20T04:36:15.007104Z","epoch_age_seconds":38049,"freshness":"FRESH","line1":"1 01361U 65034C   26263.19184036  .00000019  00000+0  14448-2 0  9992","line2":"2 01361  32.1441 311.4579 0011108  99.5534 260.6219  9.89310795219294","mean_motion":9.89310795,"eccentricity":0.0011108,"inclination_deg":32.1441,"raan_deg":311.4579,"arg_perigee_deg":99.5534,"mean_anomaly_deg":260.6219,"bstar":0.0014448,"rev_number":21929,"period_min":145.55587660397,"perigee_km":2777.6847051974,"apogee_km":2798.0478981323,"semimajor_km":9166.0033016649,"source":"CELESTRAK","updated_at":"2026-09-20T09:00:47.875080Z"}}